DW7780 Weather Reports


time (UTC)temp
C
wind
direction
speed
KPH
gust
KPH
rain 1hr
cm
rain 24hr
cm
rain mn
cm
humidity
%
barometer
mb
20260901173031 27 0 0.0 0.0 0.00 0.03 0.03 82 1014.4
20260901171533 26 0 0.0 0.0 0.00 0.03 0.03 84 1014.6
20260901170035 26 0 0.0 0.0 0.00 0.03 0.03 85 1014.9
20260901164541 25 0 0.0 0.0 0.00 0.03 0.03 89 1015.3
20260901163032 25 0 0.0 0.0 0.00 0.03 0.03 90 1015.6
20260901161548 25 0 0.0 0.0 0.00 0.03 0.03 88 1015.9
20260901160032 25 0 0.0 0.0 0.00 0.03 0.03 90 1015.9
20260901154545 25 0 0.0 0.0 0.00 0.03 0.03 93 1015.8
20260901153033 25 0 0.0 0.0 0.00 0.03 0.03 92 1015.8
20260901151534 25 0 0.0 0.0 0.00 0.03 0.03 91 1015.9
20260901150039 25 0 0.0 3.2 0.00 0.03 0.03 91 1015.9
20260901144540 25 0 0.0 1.6 0.00 0.03 0.03 90 1015.8
20260901143034 24 0 0.0 3.2 0.00 0.03 0.03 91 1015.8
20260901141536 24 0 0.0 3.2 0.00 0.03 0.03 93 1015.9
20260901140032 23 0 0.0 1.6 0.00 0.03 0.03 96 1015.9
20260901134531 23 0 0.0 0.0 0.00 0.03 0.03 98 1015.8
20260901133035 22 0 0.0 0.0 0.00 0.03 0.03 98 1015.9
20260901131533 22 0 0.0 0.0 0.00 0.03 0.03 98 1015.9
20260901130031 22 0 0.0 0.0 0.00 0.03 0.03 98 1015.9
20260901124532 22 0 0.0 0.0 0.00 0.03 0.03 98 1016.2
20260901123032 21 0 0.0 0.0 0.00 0.03 0.03 98 1015.9
20260901121532 21 0 0.0 0.0 0.00 0.03 0.03 98 1015.9
20260901120033 21 0 0.0 0.0 0.00 0.03 0.03 98 1015.8
20260901114541 20 0 0.0 0.0 0.00 0.03 0.03 98 1016.0
20260901113031 20 0 0.0 0.0 0.00 0.03 0.03 97 1016.2
20260901111532 20 0 0.0 0.0 0.00 0.03 0.03 97 1016.2
20260901110033 20 0 0.0 0.0 0.00 0.03 0.03 97 1016.1
20260901104532 20 0 0.0 0.0 0.00 0.03 0.03 97 1016.1
20260901103030 20 0 0.0 0.0 0.00 0.03 0.03 97 1016.0
20260901101533 20 0 0.0 0.0 0.03 0.03 0.03 97 1016.0
20260901100031 20 0 0.0 0.0 0.03 0.03 0.03 97 1016.1
20260901094538 20 0 0.0 0.0 0.03 0.03 0.03 97 1016.0
20260901093033 20 0 0.0 0.0 0.00 0.00 0.00 97 1016.1
20260901091534 20 0 0.0 0.0 0.00 0.00 0.00 97 1015.9
20260901090035 20 0 0.0 0.0 0.00 0.00 0.00 97 1016.2
20260901084532 20 0 0.0 0.0 0.00 0.03 0.00 97 1016.3
20260901083032 20 0 0.0 0.0 0.00 0.03 0.00 97 1016.4
20260901081534 20 0 0.0 0.0 0.00 0.03 0.00 97 1016.4
20260901080034 20 0 0.0 0.0 0.00 0.03 0.00 97 1016.3
20260901074539 20 0 0.0 0.0 0.00 0.03 0.00 97 1016.2
20260901073033 20 0 0.0 0.0 0.00 0.03 0.00 97 1016.3
20260901071532 20 0 0.0 0.0 0.00 0.03 0.00 97 1016.3
20260901070031 20 0 0.0 0.0 0.00 0.03 0.00 97 1016.4
20260901064532 20 0 0.0 0.0 0.00 0.03 0.00 97 1016.5
20260901063031 20 0 0.0 0.0 0.00 0.03 0.00 97 1016.7
20260901061534 20 0 0.0 0.0 0.00 0.03 0.00 97 1016.8
20260901060030 20 0 0.0 0.0 0.00 0.03 0.00 97 1017.2
20260901054531 20 0 0.0 0.0 0.00 0.03 0.00 97 1017.3
20260901053036 20 0 0.0 0.0 0.00 0.03 0.00 97 1017.5
20260901051532 20 0 0.0 0.0 0.00 0.03 0.00 97 1017.3
20260901050031 20 0 0.0 0.0 0.00 0.03 0.00 97 1017.4
20260901044546 20 0 0.0 0.0 0.00 0.03 0.00 97 1017.4
20260901043034 20 0 0.0 0.0 0.00 0.03 0.00 96 1017.5
20260901041533 20 0 0.0 0.0 0.00 0.03 0.00 96 1017.7
20260901040037 20 0 0.0 0.0 0.00 0.03 0.00 96 1017.9
20260901034537 20 0 0.0 0.0 0.00 0.18 0.03 95 1018.0
20260901033050 20 0 0.0 0.0 0.00 0.18 0.03 95 1018.1
20260901031533 20 0 0.0 0.0 0.00 0.18 0.03 95 1018.2
20260901030035 20 0 0.0 0.0 0.00 0.18 0.03 95 1018.3
20260901024532 20 0 0.0 0.0 0.00 0.18 0.03 94 1018.2
20260901023034 20 0 0.0 0.0 0.00 0.18 0.03 94 1018.4
20260901021541 20 0 0.0 0.0 0.00 0.18 0.03 94 1018.4
20260901020034 20 0 0.0 0.0 0.00 0.18 0.03 93 1018.4
20260901014531 20 0 0.0 0.0 0.00 0.36 0.03 93 1018.4
20260901013045 20 0 0.0 0.0 0.00 0.36 0.03 92 1018.4
20260901011544 21 0 0.0 0.0 0.00 0.36 0.03 92 1018.5
20260901010034 21 0 0.0 0.0 0.00 0.36 0.03 91 1018.5
20260901004534 21 0 0.0 0.0 0.00 0.36 0.03 91 1018.3
20260901003039 21 0 0.0 0.0 0.00 0.36 0.03 91 1018.2
20260901001534 21 0 0.0 0.0 0.00 0.36 0.03 90 1018.1
20260901000035 21 0 0.0 0.0 0.00 0.36 0.03 90 1017.9
20260831234530 22 0 0.0 0.0 0.00 0.36 0.03 89 1017.9
20260831233030 22 0 0.0 0.0 0.00 0.36 0.03 88 1018.1
20260831231531 22 0 0.0 0.0 0.00 0.36 0.03 88 1018.2
20260831230034 22 0 0.0 0.0 0.00 0.36 0.03 87 1018.2
20260831224531 23 0 0.0 0.0 0.00 0.36 0.03 87 1018.3
20260831223037 23 0 0.0 0.0 0.00 0.36 0.03 87 1018.4
20260831221541 23 0 0.0 0.0 0.00 0.36 0.03 86 1018.5
20260831220034 23 0 0.0 0.0 0.00 0.36 0.03 86 1018.5
20260831214534 23 0 0.0 0.0 0.00 0.36 0.03 87 1018.7
20260831213030 23 0 0.0 0.0 0.00 0.36 0.03 86 1018.7
20260831211537 23 0 0.0 0.0 0.00 0.36 0.03 85 1018.6
20260831210031 23 0 0.0 0.0 0.00 0.36 0.03 85 1018.9
20260831204531 23 0 0.0 0.0 0.00 0.36 0.03 85 1018.9
20260831203043 23 0 0.0 0.0 0.00 0.36 0.03 85 1019.1
20260831201543 23 0 0.0 0.0 0.00 0.36 0.03 83 1019.2
20260831200034 23 0 0.0 0.0 0.00 0.36 0.03 84 1019.4
20260831194538 23 0 0.0 0.0 0.00 0.36 0.03 82 1019.5
20260831193031 23 0 0.0 0.0 0.00 0.36 0.03 84 1019.5
20260831191531 23 0 0.0 0.0 0.00 0.36 0.03 84 1019.5
20260831190032 23 0 0.0 0.0 0.00 0.36 0.03 82 1019.7
20260831184535 24 0 0.0 0.0 0.00 0.36 0.03 81 1019.9
20260831183030 24 0 0.0 0.0 0.00 0.36 0.03 78 1019.9
20260831181531 24 0 0.0 0.0 0.00 0.36 0.03 78 1020.0
20260831180034 24 0 0.0 0.0 0.00 0.36 0.03 81 1020.0
20260831174532 24 0 0.0 0.0 0.00 0.36 0.03 79 1020.2